Home > Weather > Topeka > Past weeks

Flag for USA Past Weather in Topeka, Kansas, USA — Yesterday and Last 2 Weeks

Now
88 °F

Sunny.


Feels Like: 91 °F
Forecast: 74 / 88 °F
Wind: 5 mph from West

Location: Philip Billard Municipal Airport

Current Time: Jun 26, 2016 at 5:51:57 PM

Latest Report: Jun 26, 2016 at 4:53 PM


Visibility: 10 mi

Pressure: 29.99 "Hg

Humidity: 50%

Dew Point: 67 °F

Location of TopekaLocation

Past Weather in Topeka — Graph

°F

Topeka Temperature Yesterday

Maximum temperature yesterday: 94 °F (at 2:53 PM)
Minimum temperature yesterday: 77 °F (at 5:53 AM)
Average temperature yesterday: 85 °F

High & Low Weather Summary for the Past Weeks

 TemperatureHumidityPressure
High102 °F (Jun 22, 3:53 PM)93% (Jun 14, 5:53 AM)30.15 "Hg (Jun 14, 5:53 AM)
Low69 °F (Jun 15, 3:53 AM)28% (Jun 22, 4:53 PM)29.65 "Hg (Jun 14, 6:53 PM)
Average83 °F63%29.93 "Hg
* Reported Jun 11 3:53 PM — Jun 26 3:53 PM, Topeka, Weather by CustomWeather, © 2016

Note: Actual official high and low records may vary slightly from our data, if they occured in-between our weather recording intervals... More about our weather records

Advertising

Topeka Weather History for the Previous 24 Hours

Scroll right to see more
 ConditionsComfort  
Time TempWeatherWind HumidityBarometerVisibility
3:53 PM
Sun, Jun 26
87 °FPartly sunny.8 mph53%30.03 "Hg10 mi
2:53 PM90 °FSunny.6 mph48%30.02 "Hg10 mi
1:53 PM88 °FScattered clouds.5 mph57%30.04 "Hg10 mi
12:53 PM88 °FPartly sunny.3 mph52%30.04 "Hg10 mi
11:53 AM88 °FScattered clouds.3 mph54%30.05 "Hg10 mi
10:53 AM85 °FSunny.No wind57%30.04 "Hg10 mi
9:53 AM83 °FPassing clouds.3 mph59%30.03 "Hg10 mi
8:53 AM81 °FSunny.No wind65%30.02 "Hg10 mi
7:53 AM78 °FSunny.No wind71%30.00 "Hg10 mi
6:53 AM76 °FPassing clouds.No wind72%30.01 "Hg10 mi
5:53 AM76 °FPassing clouds.6 mph69%30.01 "Hg10 mi
4:53 AM76 °FOvercast.7 mph69%29.98 "Hg10 mi
3:53 AM75 °FClear.No wind71%29.97 "Hg10 mi
2:53 AM79 °FClear.No wind56%29.97 "Hg10 mi
1:53 AM82 °FClear.8 mph51%29.94 "Hg10 mi
12:53 AM84 °FPassing clouds.9 mph61%29.95 "Hg10 mi
11:53 PM
Sat, Jun 25
83 °FClear.7 mph63%29.93 "Hg10 mi
10:53 PM85 °FClear.6 mph59%29.93 "Hg10 mi
9:53 PM85 °FClear.7 mph59%29.91 "Hg10 mi
8:53 PM87 °FSunny.10 mph55%29.88 "Hg10 mi
7:53 PM90 °FSunny.9 mph50%29.86 "Hg10 mi
6:53 PM93 °FSunny.14 mph44%29.85 "Hg10 mi
5:53 PM93 °FSunny.18 mph44%29.87 "Hg10 mi
Weather by CustomWeather, © 2016

See weather overviewHow to use our weather pages